Year,Month,Day,Hour,Minute,Value (Times are PST for temperature in C)
2019,05,29,00,00,13.50
2019,05,29,00,01,13.50
2019,05,29,00,02,13.40
2019,05,29,00,03,13.40
2019,05,29,00,04,13.40
2019,05,29,00,05,13.40
2019,05,29,00,06,13.40
2019,05,29,00,07,13.40
2019,05,29,00,08,13.40
2019,05,29,00,09,13.40
2019,05,29,00,10,13.40
2019,05,29,00,11,13.40
2019,05,29,00,12,13.40
2019,05,29,00,13,13.40
2019,05,29,00,14,13.30
2019,05,29,00,15,13.30
2019,05,29,00,16,13.30
2019,05,29,00,17,13.30
2019,05,29,00,18,13.30
2019,05,29,00,19,13.30
2019,05,29,00,20,13.30
2019,05,29,00,21,13.30
2019,05,29,00,22,13.30
2019,05,29,00,23,13.20
2019,05,29,00,24,13.20
2019,05,29,00,25,13.20
2019,05,29,00,26,13.20
2019,05,29,00,27,13.20
2019,05,29,00,28,13.20
2019,05,29,00,29,13.20
2019,05,29,00,30,13.20
2019,05,29,00,31,13.20
2019,05,29,00,32,13.20
2019,05,29,00,33,13.20
2019,05,29,00,34,13.20
2019,05,29,00,35,13.20
2019,05,29,00,36,13.10
2019,05,29,00,37,13.10
2019,05,29,00,38,13.10
2019,05,29,00,39,13.10
2019,05,29,00,40,13.10
2019,05,29,00,41,13.10
2019,05,29,00,42,13.10
2019,05,29,00,43,13.10
2019,05,29,00,44,13.10
2019,05,29,00,45,13.10
2019,05,29,00,46,13.10
2019,05,29,00,47,13.00
2019,05,29,00,48,13.00
2019,05,29,00,49,12.90
2019,05,29,00,50,12.90
2019,05,29,00,51,12.90
2019,05,29,00,52,12.90
2019,05,29,00,53,12.80
2019,05,29,00,54,12.80
2019,05,29,00,55,12.80
2019,05,29,00,56,12.80
2019,05,29,00,57,12.70
2019,05,29,00,58,12.60
2019,05,29,00,59,12.60
2019,05,29,01,00,12.50
2019,05,29,01,01,12.50
2019,05,29,01,02,12.40
2019,05,29,01,03,12.40
2019,05,29,01,04,12.30
2019,05,29,01,05,12.30
2019,05,29,01,06,12.30
2019,05,29,01,07,12.30
2019,05,29,01,08,12.30
2019,05,29,01,09,12.20
2019,05,29,01,10,12.20
2019,05,29,01,11,12.20
2019,05,29,01,12,12.20
2019,05,29,01,13,12.20
2019,05,29,01,14,12.20
2019,05,29,01,15,12.20
2019,05,29,01,16,12.10
2019,05,29,01,17,12.10
2019,05,29,01,18,12.10
2019,05,29,01,19,12.00
2019,05,29,01,20,12.00
2019,05,29,01,21,11.90
2019,05,29,01,22,11.90
2019,05,29,01,23,11.90
2019,05,29,01,24,11.90
2019,05,29,01,25,11.90
2019,05,29,01,26,11.90
2019,05,29,01,27,11.90
2019,05,29,01,28,11.90
2019,05,29,01,29,11.90
2019,05,29,01,30,11.90
2019,05,29,01,31,11.90
2019,05,29,01,32,11.90
2019,05,29,01,33,11.90
2019,05,29,01,34,11.90
2019,05,29,01,35,11.90
2019,05,29,01,36,12.00
2019,05,29,01,37,12.00
2019,05,29,01,38,12.00
2019,05,29,01,39,12.00
2019,05,29,01,40,11.90
2019,05,29,01,41,11.90
2019,05,29,01,42,11.80
2019,05,29,01,43,11.80
2019,05,29,01,44,11.80
2019,05,29,01,45,11.70
2019,05,29,01,46,11.70
2019,05,29,01,47,11.70
2019,05,29,01,48,11.70
2019,05,29,01,49,11.70
2019,05,29,01,50,11.70
2019,05,29,01,51,11.70
2019,05,29,01,52,11.70
2019,05,29,01,53,11.70
2019,05,29,01,54,11.70
2019,05,29,01,55,11.70
2019,05,29,01,56,11.70
2019,05,29,01,57,11.70
2019,05,29,01,58,11.80
2019,05,29,01,59,11.80
2019,05,29,02,00,11.80
2019,05,29,02,01,11.70
2019,05,29,02,02,11.70
2019,05,29,02,03,11.70
2019,05,29,02,04,11.70
2019,05,29,02,05,11.70
2019,05,29,02,06,11.70
2019,05,29,02,07,11.70
2019,05,29,02,08,11.70
2019,05,29,02,09,11.70
2019,05,29,02,10,11.60
2019,05,29,02,11,11.60
2019,05,29,02,12,11.60
2019,05,29,02,13,11.50
2019,05,29,02,14,11.50
2019,05,29,02,15,11.50
2019,05,29,02,16,11.50
2019,05,29,02,17,11.50
2019,05,29,02,18,11.50
2019,05,29,02,19,11.50
2019,05,29,02,20,11.40
2019,05,29,02,21,11.40
2019,05,29,02,22,11.40
2019,05,29,02,23,11.40
2019,05,29,02,24,11.40
2019,05,29,02,25,11.40
2019,05,29,02,26,11.50
2019,05,29,02,27,11.50
2019,05,29,02,28,11.50
2019,05,29,02,29,11.50
2019,05,29,02,30,11.50
2019,05,29,02,31,11.50
2019,05,29,02,32,11.40
2019,05,29,02,33,11.40
2019,05,29,02,34,11.40
2019,05,29,02,35,11.40
2019,05,29,02,36,11.40
2019,05,29,02,37,11.40
2019,05,29,02,38,11.40
2019,05,29,02,39,11.30
2019,05,29,02,40,11.30
2019,05,29,02,41,11.30
2019,05,29,02,42,11.30
2019,05,29,02,43,11.30
2019,05,29,02,44,11.30
2019,05,29,02,45,11.30
2019,05,29,02,46,11.30
2019,05,29,02,47,11.30
2019,05,29,02,48,11.30
2019,05,29,02,49,11.30
2019,05,29,02,50,11.30
2019,05,29,02,51,11.30
2019,05,29,02,52,11.30
2019,05,29,02,53,11.30
2019,05,29,02,54,11.20
2019,05,29,02,55,11.20
2019,05,29,02,56,11.20
2019,05,29,02,57,11.20
2019,05,29,02,58,11.20
2019,05,29,02,59,11.20
2019,05,29,03,00,11.20
2019,05,29,03,01,11.20
2019,05,29,03,02,11.20
2019,05,29,03,03,11.10
2019,05,29,03,04,11.10
2019,05,29,03,05,11.10
2019,05,29,03,06,11.10
2019,05,29,03,07,11.10
2019,05,29,03,08,11.10
2019,05,29,03,09,11.10
2019,05,29,03,10,11.10
2019,05,29,03,11,11.00
2019,05,29,03,12,11.00
2019,05,29,03,13,11.00
2019,05,29,03,14,11.00
2019,05,29,03,15,10.90
2019,05,29,03,16,10.90
2019,05,29,03,17,10.90
2019,05,29,03,18,10.90
2019,05,29,03,19,10.90
2019,05,29,03,20,10.90
2019,05,29,03,21,10.90
2019,05,29,03,22,10.80
2019,05,29,03,23,10.80
2019,05,29,03,24,10.80
2019,05,29,03,25,10.90
2019,05,29,03,26,10.80
2019,05,29,03,27,10.80
2019,05,29,03,28,10.80
2019,05,29,03,29,10.90
2019,05,29,03,30,10.80
2019,05,29,03,31,10.80
2019,05,29,03,32,10.80
2019,05,29,03,33,10.80
2019,05,29,03,34,10.80
2019,05,29,03,35,10.80
2019,05,29,03,36,10.80
2019,05,29,03,37,10.80
2019,05,29,03,38,10.80
2019,05,29,03,39,10.80
2019,05,29,03,40,10.80
2019,05,29,03,41,10.80
2019,05,29,03,42,10.80
2019,05,29,03,43,10.80
2019,05,29,03,44,10.80
2019,05,29,03,45,10.80
2019,05,29,03,46,10.80
2019,05,29,03,47,10.80
2019,05,29,03,48,10.80
2019,05,29,03,49,10.80
2019,05,29,03,50,10.80
2019,05,29,03,51,10.80
2019,05,29,03,52,10.80
2019,05,29,03,53,10.80
2019,05,29,03,54,10.80
2019,05,29,03,55,10.80
2019,05,29,03,56,10.80
2019,05,29,03,57,10.80
2019,05,29,03,58,10.80
2019,05,29,03,59,10.80
2019,05,29,04,00,10.80
2019,05,29,04,01,10.70
2019,05,29,04,02,10.70
2019,05,29,04,03,10.70
2019,05,29,04,04,10.70
2019,05,29,04,05,10.70
2019,05,29,04,06,10.70
2019,05,29,04,07,10.70
2019,05,29,04,08,10.70
2019,05,29,04,09,10.60
2019,05,29,04,10,10.60
2019,05,29,04,11,10.60
2019,05,29,04,12,10.60
2019,05,29,04,13,10.60
2019,05,29,04,14,10.60
2019,05,29,04,15,10.60
2019,05,29,04,16,10.60
2019,05,29,04,17,10.60
2019,05,29,04,18,10.50
2019,05,29,04,19,10.50
2019,05,29,04,20,10.50
2019,05,29,04,21,10.50
2019,05,29,04,22,10.50
2019,05,29,04,23,10.50
2019,05,29,04,24,10.40
2019,05,29,04,25,10.40
2019,05,29,04,26,10.40
2019,05,29,04,27,10.40
2019,05,29,04,28,10.40
2019,05,29,04,29,10.40
2019,05,29,04,30,10.40
2019,05,29,04,31,10.40
2019,05,29,04,32,10.40
2019,05,29,04,33,10.40
2019,05,29,04,34,10.40
2019,05,29,04,35,10.40
2019,05,29,04,36,10.40
2019,05,29,04,37,10.40
2019,05,29,04,38,10.40
2019,05,29,04,39,10.40
2019,05,29,04,40,10.40
2019,05,29,04,41,10.40
2019,05,29,04,42,10.40
2019,05,29,04,43,10.40
2019,05,29,04,44,10.40
2019,05,29,04,45,10.40
2019,05,29,04,46,10.40
2019,05,29,04,47,10.40
2019,05,29,04,48,10.40
2019,05,29,04,49,10.40
2019,05,29,04,50,10.40
2019,05,29,04,51,10.40
2019,05,29,04,52,10.40
2019,05,29,04,53,10.40
2019,05,29,04,54,10.40
2019,05,29,04,55,10.40
2019,05,29,04,56,10.40
2019,05,29,04,57,10.40
2019,05,29,04,58,10.40
2019,05,29,04,59,10.30
2019,05,29,05,00,10.30
2019,05,29,05,01,10.30
2019,05,29,05,02,10.30
2019,05,29,05,03,10.20
2019,05,29,05,04,10.20
2019,05,29,05,05,10.20
2019,05,29,05,06,10.20
2019,05,29,05,07,10.20
2019,05,29,05,08,10.20
2019,05,29,05,09,10.10
2019,05,29,05,10,10.10
2019,05,29,05,11,10.10
2019,05,29,05,12,10.10
2019,05,29,05,13,10.10
2019,05,29,05,14,10.10
2019,05,29,05,15,10.20
2019,05,29,05,16,10.20
2019,05,29,05,17,10.20
2019,05,29,05,18,10.20
2019,05,29,05,19,10.20
2019,05,29,05,20,10.20
2019,05,29,05,21,10.20
2019,05,29,05,22,10.20
2019,05,29,05,23,10.20
2019,05,29,05,24,10.20
2019,05,29,05,25,10.20
2019,05,29,05,26,10.20
2019,05,29,05,27,10.20
2019,05,29,05,28,10.20
2019,05,29,05,29,10.20
2019,05,29,05,30,10.20
2019,05,29,05,31,10.20
2019,05,29,05,32,10.20
2019,05,29,05,33,10.20
2019,05,29,05,34,10.20
2019,05,29,05,35,10.20
2019,05,29,05,36,10.20
2019,05,29,05,37,10.20
2019,05,29,05,38,10.20
2019,05,29,05,39,10.20
2019,05,29,05,40,10.20
2019,05,29,05,41,10.20
2019,05,29,05,42,10.20
2019,05,29,05,43,10.20
2019,05,29,05,44,10.20
2019,05,29,05,45,10.20
2019,05,29,05,46,10.20
2019,05,29,05,47,10.20
2019,05,29,05,48,10.20
2019,05,29,05,49,10.20
2019,05,29,05,50,10.10
2019,05,29,05,51,10.10
2019,05,29,05,52,10.10
2019,05,29,05,53,10.10
2019,05,29,05,54,10.10
2019,05,29,05,55,10.10
2019,05,29,05,56,10.10
2019,05,29,05,57,10.10
2019,05,29,05,58,10.10
2019,05,29,05,59,10.00
2019,05,29,06,00,10.00
2019,05,29,06,01,10.00
2019,05,29,06,02,10.00
2019,05,29,06,03,10.00
2019,05,29,06,04,10.00
2019,05,29,06,05,10.00
2019,05,29,06,06,10.00
2019,05,29,06,07,10.00
2019,05,29,06,08,10.00
2019,05,29,06,09,10.00
2019,05,29,06,10,10.00
2019,05,29,06,11,10.00
2019,05,29,06,12,10.00
2019,05,29,06,13,10.00
2019,05,29,06,14,10.00
2019,05,29,06,15,10.00
2019,05,29,06,16,10.00
2019,05,29,06,17,10.10
2019,05,29,06,18,10.10
2019,05,29,06,19,10.10
2019,05,29,06,20,10.10
2019,05,29,06,21,10.10
2019,05,29,06,22,10.10
2019,05,29,06,23,10.10
2019,05,29,06,24,10.10
2019,05,29,06,25,10.10
2019,05,29,06,26,10.10
2019,05,29,06,27,10.10
2019,05,29,06,28,10.20
2019,05,29,06,29,10.20
2019,05,29,06,30,10.20
2019,05,29,06,31,10.20
2019,05,29,06,32,10.20
2019,05,29,06,33,10.30
2019,05,29,06,34,10.30
2019,05,29,06,35,10.30
2019,05,29,06,36,10.40
2019,05,29,06,37,10.40
2019,05,29,06,38,10.50
2019,05,29,06,39,10.60
2019,05,29,06,40,10.60
2019,05,29,06,41,10.70
2019,05,29,06,42,10.70
2019,05,29,06,43,10.80
2019,05,29,06,44,10.90
2019,05,29,06,45,11.00
2019,05,29,06,46,11.10
2019,05,29,06,47,11.10
2019,05,29,06,48,11.20
2019,05,29,06,49,11.30
2019,05,29,06,50,11.40
2019,05,29,06,51,11.40
2019,05,29,06,52,11.50
2019,05,29,06,53,11.60
2019,05,29,06,54,11.60
2019,05,29,06,55,11.70
2019,05,29,06,56,11.80
2019,05,29,06,57,11.80
2019,05,29,06,58,11.90
2019,05,29,06,59,11.90
2019,05,29,07,00,12.00
2019,05,29,07,01,12.10
2019,05,29,07,02,12.10
2019,05,29,07,03,12.20
2019,05,29,07,04,12.30
2019,05,29,07,05,12.30
2019,05,29,07,06,12.40
2019,05,29,07,07,12.50
2019,05,29,07,08,12.60
2019,05,29,07,09,12.70
2019,05,29,07,10,12.70
2019,05,29,07,11,12.80
2019,05,29,07,12,12.90
2019,05,29,07,13,12.90
2019,05,29,07,14,13.00
2019,05,29,07,15,13.00
2019,05,29,07,16,13.10
2019,05,29,07,17,13.20
2019,05,29,07,18,13.20
2019,05,29,07,19,13.30
2019,05,29,07,20,13.30
2019,05,29,07,21,13.40
2019,05,29,07,22,13.50
2019,05,29,07,23,13.50
2019,05,29,07,24,13.60
2019,05,29,07,25,13.60
2019,05,29,07,26,13.60
2019,05,29,07,27,13.70
2019,05,29,07,28,13.70
2019,05,29,07,29,13.80
2019,05,29,07,30,13.80
2019,05,29,07,31,13.90
2019,05,29,07,32,13.90
2019,05,29,07,33,13.90
2019,05,29,07,34,14.00
2019,05,29,07,35,14.00
2019,05,29,07,36,14.00
2019,05,29,07,37,14.10
2019,05,29,07,38,14.10
2019,05,29,07,39,14.10
2019,05,29,07,40,14.20
2019,05,29,07,41,14.20
2019,05,29,07,42,14.20
2019,05,29,07,43,14.30
2019,05,29,07,44,14.30
2019,05,29,07,45,14.40
2019,05,29,07,46,14.40
2019,05,29,07,47,14.40
2019,05,29,07,48,14.50
2019,05,29,07,49,14.40
2019,05,29,07,50,14.40
2019,05,29,07,51,14.40
2019,05,29,07,52,14.40
2019,05,29,07,53,14.40
2019,05,29,07,54,14.30
2019,05,29,07,55,14.30
2019,05,29,07,56,14.30
2019,05,29,07,57,14.30
2019,05,29,07,58,14.30
2019,05,29,07,59,14.30
2019,05,29,08,00,14.30
2019,05,29,08,01,14.20
2019,05,29,08,02,14.20
2019,05,29,08,03,14.20
2019,05,29,08,04,14.10
2019,05,29,08,05,14.10
2019,05,29,08,06,14.20
2019,05,29,08,07,14.20
2019,05,29,08,08,14.20
2019,05,29,08,09,14.20
2019,05,29,08,10,14.20
2019,05,29,08,11,14.20
2019,05,29,08,12,14.20
2019,05,29,08,13,14.20
2019,05,29,08,14,14.20
2019,05,29,08,15,14.30
2019,05,29,08,16,14.40
2019,05,29,08,17,14.50
2019,05,29,08,18,14.60
2019,05,29,08,19,14.60
2019,05,29,08,20,14.60
2019,05,29,08,21,14.70
2019,05,29,08,22,14.70
2019,05,29,08,23,14.70
2019,05,29,08,24,14.70
2019,05,29,08,25,14.70
2019,05,29,08,26,14.70
2019,05,29,08,27,14.80
2019,05,29,08,28,14.80
2019,05,29,08,29,14.80
2019,05,29,08,30,14.80
2019,05,29,08,31,14.70
2019,05,29,08,32,14.70
2019,05,29,08,33,14.70
2019,05,29,08,34,14.70
2019,05,29,08,35,14.70
2019,05,29,08,36,14.70
2019,05,29,08,37,14.70
2019,05,29,08,38,14.80
2019,05,29,08,39,14.90
2019,05,29,08,40,14.90
2019,05,29,08,41,15.00
2019,05,29,08,42,15.10
2019,05,29,08,43,15.10
2019,05,29,08,44,15.20
2019,05,29,08,45,15.20
2019,05,29,08,46,15.20
2019,05,29,08,47,15.30
2019,05,29,08,48,15.40
2019,05,29,08,49,15.50
2019,05,29,08,50,15.60
2019,05,29,08,51,15.60
2019,05,29,08,52,15.70
2019,05,29,08,53,15.70
2019,05,29,08,54,15.80
2019,05,29,08,55,15.70
2019,05,29,08,56,15.70
2019,05,29,08,57,15.60
2019,05,29,08,58,15.60
2019,05,29,08,59,15.70
2019,05,29,09,00,15.60
2019,05,29,09,01,15.60
2019,05,29,09,02,15.60
2019,05,29,09,03,15.60
2019,05,29,09,04,15.60
2019,05,29,09,05,15.60
2019,05,29,09,06,15.60
2019,05,29,09,07,15.60
2019,05,29,09,08,15.60
2019,05,29,09,09,15.60
2019,05,29,09,10,15.60
2019,05,29,09,11,15.70
2019,05,29,09,12,15.70
2019,05,29,09,13,15.70
2019,05,29,09,14,15.70
2019,05,29,09,15,15.70
2019,05,29,09,16,15.80
2019,05,29,09,17,15.80
2019,05,29,09,18,15.80
2019,05,29,09,19,15.80
2019,05,29,09,20,15.80
2019,05,29,09,21,15.90
2019,05,29,09,22,16.00
2019,05,29,09,23,16.00
2019,05,29,09,24,16.00
2019,05,29,09,25,15.90
2019,05,29,09,26,16.00
2019,05,29,09,27,16.10
2019,05,29,09,28,16.20
2019,05,29,09,29,16.30
2019,05,29,09,30,16.50
2019,05,29,09,31,16.50
2019,05,29,09,32,16.60
2019,05,29,09,33,16.60
2019,05,29,09,34,16.70
2019,05,29,09,35,16.80
2019,05,29,09,36,16.80
2019,05,29,09,37,16.90
2019,05,29,09,38,16.80
2019,05,29,09,39,16.80
2019,05,29,09,40,16.80
2019,05,29,09,41,16.90
2019,05,29,09,42,16.90
2019,05,29,09,43,17.00
2019,05,29,09,44,17.10
2019,05,29,09,45,17.10
2019,05,29,09,46,17.10
2019,05,29,09,47,17.10
2019,05,29,09,48,17.00
2019,05,29,09,49,17.00
2019,05,29,09,50,16.90
2019,05,29,09,51,17.00
2019,05,29,09,52,17.00
2019,05,29,09,53,17.10
2019,05,29,09,54,17.10
2019,05,29,09,55,17.10
2019,05,29,09,56,17.10
2019,05,29,09,57,17.20
2019,05,29,09,58,17.20
2019,05,29,09,59,17.20
2019,05,29,10,00,17.30
2019,05,29,10,01,17.20
2019,05,29,10,02,17.20
2019,05,29,10,03,17.10
2019,05,29,10,04,17.10
2019,05,29,10,05,17.10
2019,05,29,10,06,17.20
2019,05,29,10,07,17.20
2019,05,29,10,08,17.20
2019,05,29,10,09,17.10
2019,05,29,10,10,17.00
2019,05,29,10,11,17.00
2019,05,29,10,12,16.90
2019,05,29,10,13,16.90
2019,05,29,10,14,16.80
2019,05,29,10,15,16.70
2019,05,29,10,16,16.70
2019,05,29,10,17,16.60
2019,05,29,10,18,16.60
2019,05,29,10,19,16.50
2019,05,29,10,20,16.50
2019,05,29,10,21,16.60
2019,05,29,10,22,16.70
2019,05,29,10,23,16.80
2019,05,29,10,24,16.90
2019,05,29,10,25,17.00
2019,05,29,10,26,17.10
2019,05,29,10,27,17.10
2019,05,29,10,28,17.10
2019,05,29,10,29,17.00
2019,05,29,10,30,16.90
2019,05,29,10,31,16.80
2019,05,29,10,32,16.70
2019,05,29,10,33,16.60
2019,05,29,10,34,16.60
2019,05,29,10,35,16.60
2019,05,29,10,36,16.60
2019,05,29,10,37,16.60
2019,05,29,10,38,16.60
2019,05,29,10,39,16.70
2019,05,29,10,40,16.70
2019,05,29,10,41,16.70
2019,05,29,10,42,16.80
2019,05,29,10,43,17.00
2019,05,29,10,44,17.10
2019,05,29,10,45,17.20
2019,05,29,10,46,17.20
2019,05,29,10,47,17.30
2019,05,29,10,48,17.40
2019,05,29,10,49,17.50
2019,05,29,10,50,17.40
2019,05,29,10,51,17.40
2019,05,29,10,52,17.40
2019,05,29,10,53,17.40
2019,05,29,10,54,17.30
2019,05,29,10,55,17.30
2019,05,29,10,56,17.30
2019,05,29,10,57,17.30
2019,05,29,10,58,17.30
2019,05,29,10,59,17.30
2019,05,29,11,00,17.30
2019,05,29,11,01,17.30
2019,05,29,11,02,17.30
2019,05,29,11,03,17.30
2019,05,29,11,04,17.30
2019,05,29,11,05,17.20
2019,05,29,11,06,17.20
2019,05,29,11,07,17.20
2019,05,29,11,08,17.20
2019,05,29,11,09,17.30
2019,05,29,11,10,17.40
2019,05,29,11,11,17.40
2019,05,29,11,12,17.40
2019,05,29,11,13,17.40
2019,05,29,11,14,17.40
2019,05,29,11,15,17.40
2019,05,29,11,16,17.40
2019,05,29,11,17,17.50
2019,05,29,11,18,17.60
2019,05,29,11,19,17.70
2019,05,29,11,20,17.60
2019,05,29,11,21,17.60
2019,05,29,11,22,17.70
2019,05,29,11,23,17.70
2019,05,29,11,24,17.60
2019,05,29,11,25,17.50
2019,05,29,11,26,17.40
2019,05,29,11,27,17.40
2019,05,29,11,28,17.40
2019,05,29,11,29,17.40
2019,05,29,11,30,17.40
2019,05,29,11,31,17.40
2019,05,29,11,32,17.40
2019,05,29,11,33,17.40
2019,05,29,11,34,17.30
2019,05,29,11,35,17.30
2019,05,29,11,36,17.50
2019,05,29,11,37,17.60
2019,05,29,11,38,17.60
2019,05,29,11,39,17.50
2019,05,29,11,40,17.40
2019,05,29,11,41,17.40
2019,05,29,11,42,17.40
2019,05,29,11,43,17.30
2019,05,29,11,44,17.20
2019,05,29,11,45,17.20
2019,05,29,11,46,17.20
2019,05,29,11,47,17.20
2019,05,29,11,48,17.10
2019,05,29,11,49,17.20
2019,05,29,11,50,17.30
2019,05,29,11,51,17.30
2019,05,29,11,52,17.30
2019,05,29,11,53,17.00
2019,05,29,11,54,17.00
2019,05,29,11,55,17.00
2019,05,29,11,56,16.90
2019,05,29,11,57,17.00
2019,05,29,11,58,17.10
2019,05,29,11,59,17.00
2019,05,29,12,00,16.90
2019,05,29,12,01,16.90
2019,05,29,12,02,16.80
2019,05,29,12,03,16.70
2019,05,29,12,04,16.70
2019,05,29,12,05,16.80
2019,05,29,12,06,16.80
2019,05,29,12,07,16.70
2019,05,29,12,08,16.80
2019,05,29,12,09,16.70
2019,05,29,12,10,16.70
2019,05,29,12,11,16.60
2019,05,29,12,12,16.70
2019,05,29,12,13,16.70
2019,05,29,12,14,16.70
2019,05,29,12,15,16.80
2019,05,29,12,16,16.80
2019,05,29,12,17,16.90
2019,05,29,12,18,17.00
2019,05,29,12,19,17.00
2019,05,29,12,20,17.00
2019,05,29,12,21,16.90
2019,05,29,12,22,16.80
2019,05,29,12,23,16.80
2019,05,29,12,24,16.80
2019,05,29,12,25,16.90
2019,05,29,12,26,16.90
2019,05,29,12,27,16.90
2019,05,29,12,28,16.90
2019,05,29,12,29,16.80
2019,05,29,12,30,16.70
2019,05,29,12,31,16.70
2019,05,29,12,32,16.60
2019,05,29,12,33,16.50
2019,05,29,12,34,16.40
2019,05,29,12,35,16.40
2019,05,29,12,36,16.40
2019,05,29,12,37,16.40
2019,05,29,12,38,16.40
2019,05,29,12,39,16.50
2019,05,29,12,40,16.40
2019,05,29,12,41,16.30
2019,05,29,12,42,16.20
2019,05,29,12,43,16.20
2019,05,29,12,44,16.30
2019,05,29,12,45,16.30
2019,05,29,12,46,16.40
2019,05,29,12,47,16.40
2019,05,29,12,48,16.40
2019,05,29,12,49,16.40
2019,05,29,12,50,16.50
2019,05,29,12,51,16.60
2019,05,29,12,52,16.70
2019,05,29,12,53,16.70
2019,05,29,12,54,16.70
2019,05,29,12,55,16.60
2019,05,29,12,56,16.70
2019,05,29,12,57,16.70
2019,05,29,12,58,16.70
2019,05,29,12,59,16.80
2019,05,29,13,00,16.80
2019,05,29,13,01,16.70
2019,05,29,13,02,16.70
2019,05,29,13,03,16.70
2019,05,29,13,04,16.80
2019,05,29,13,05,16.80
2019,05,29,13,06,16.90
2019,05,29,13,07,16.80
2019,05,29,13,08,16.80
2019,05,29,13,09,16.80
2019,05,29,13,10,16.90
2019,05,29,13,11,16.90
2019,05,29,13,12,16.90
2019,05,29,13,13,16.80
2019,05,29,13,14,16.70
2019,05,29,13,15,16.70
2019,05,29,13,16,16.80
2019,05,29,13,17,16.80
2019,05,29,13,18,16.70
2019,05,29,13,19,16.70
2019,05,29,13,20,16.60
2019,05,29,13,21,16.70
2019,05,29,13,22,16.70
2019,05,29,13,23,16.70
2019,05,29,13,24,16.70
2019,05,29,13,25,16.70
2019,05,29,13,26,16.80
2019,05,29,13,27,16.90
2019,05,29,13,28,17.00
2019,05,29,13,29,17.10
2019,05,29,13,30,17.20
2019,05,29,13,31,17.20
2019,05,29,13,32,17.20
2019,05,29,13,33,17.20
2019,05,29,13,34,17.20
2019,05,29,13,35,17.20
2019,05,29,13,36,17.30
2019,05,29,13,37,17.40
2019,05,29,13,38,17.40
2019,05,29,13,39,17.50
2019,05,29,13,40,17.40
2019,05,29,13,41,17.40
2019,05,29,13,42,17.40
2019,05,29,13,43,17.50
2019,05,29,13,44,17.60
2019,05,29,13,45,17.70
2019,05,29,13,46,17.70
2019,05,29,13,47,17.60
2019,05,29,13,48,17.60
2019,05,29,13,49,17.60
2019,05,29,13,50,17.50
2019,05,29,13,51,17.30
2019,05,29,13,52,17.40
2019,05,29,13,53,17.40
2019,05,29,13,54,17.50
2019,05,29,13,55,17.50
2019,05,29,13,56,17.60
2019,05,29,13,57,17.70
2019,05,29,13,58,17.70
2019,05,29,13,59,17.80
2019,05,29,14,00,17.80
2019,05,29,14,01,17.90
2019,05,29,14,02,17.90
2019,05,29,14,03,17.80
2019,05,29,14,04,17.80
2019,05,29,14,05,17.70
2019,05,29,14,06,17.70
2019,05,29,14,07,17.60
2019,05,29,14,08,17.50
2019,05,29,14,09,17.40
2019,05,29,14,10,17.50
2019,05,29,14,11,17.50
2019,05,29,14,12,17.50
2019,05,29,14,13,17.50
2019,05,29,14,14,17.50
2019,05,29,14,15,17.60
2019,05,29,14,16,17.60
2019,05,29,14,17,17.60
2019,05,29,14,18,17.60
2019,05,29,14,19,17.60
2019,05,29,14,20,17.70
2019,05,29,14,21,17.80
2019,05,29,14,22,17.80
2019,05,29,14,23,17.80
2019,05,29,14,24,17.80
2019,05,29,14,25,17.80
2019,05,29,14,26,17.80
2019,05,29,14,27,17.80
2019,05,29,14,28,17.80
2019,05,29,14,29,17.80
2019,05,29,14,30,17.80
2019,05,29,14,31,17.90
2019,05,29,14,32,18.00
2019,05,29,14,33,18.10
2019,05,29,14,34,18.30
2019,05,29,14,35,18.40
2019,05,29,14,36,18.60
2019,05,29,14,37,18.60
2019,05,29,14,38,18.70
2019,05,29,14,39,18.80
2019,05,29,14,40,18.90
2019,05,29,14,41,19.00
2019,05,29,14,42,19.00
2019,05,29,14,43,19.10
2019,05,29,14,44,19.10
2019,05,29,14,45,19.10
2019,05,29,14,46,19.20
2019,05,29,14,47,19.20
2019,05,29,14,48,19.20
2019,05,29,14,49,19.20
2019,05,29,14,50,19.20
2019,05,29,14,51,19.20
2019,05,29,14,52,19.40
2019,05,29,14,53,19.50
2019,05,29,14,54,19.50
2019,05,29,14,55,19.60
2019,05,29,14,56,19.60
2019,05,29,14,57,19.60
2019,05,29,14,58,19.60
2019,05,29,14,59,19.50
2019,05,29,15,00,19.60
2019,05,29,15,01,19.60
2019,05,29,15,02,19.60
2019,05,29,15,03,19.60
2019,05,29,15,04,19.60
2019,05,29,15,05,19.70
2019,05,29,15,06,19.70
2019,05,29,15,07,19.60
2019,05,29,15,08,19.70
2019,05,29,15,09,19.60
2019,05,29,15,10,19.60
2019,05,29,15,11,19.60
2019,05,29,15,12,19.60
2019,05,29,15,13,19.50
2019,05,29,15,14,19.50
2019,05,29,15,15,19.60
2019,05,29,15,16,19.60
2019,05,29,15,17,19.60
2019,05,29,15,18,19.60
2019,05,29,15,19,19.70
2019,05,29,15,20,19.80
2019,05,29,15,21,20.00
2019,05,29,15,22,20.10
2019,05,29,15,23,20.00
2019,05,29,15,24,19.90
2019,05,29,15,25,19.70
2019,05,29,15,26,19.60
2019,05,29,15,27,19.60
2019,05,29,15,28,19.60
2019,05,29,15,29,19.70
2019,05,29,15,30,19.70
2019,05,29,15,31,19.70
2019,05,29,15,32,19.80
2019,05,29,15,33,19.80
2019,05,29,15,34,19.80
2019,05,29,15,35,19.70
2019,05,29,15,36,19.60
2019,05,29,15,37,19.50
2019,05,29,15,38,19.40
2019,05,29,15,39,19.20
2019,05,29,15,40,19.30
2019,05,29,15,41,19.30
2019,05,29,15,42,19.30
2019,05,29,15,43,19.40
2019,05,29,15,44,19.60
2019,05,29,15,45,19.70
2019,05,29,15,46,19.80
2019,05,29,15,47,19.80
2019,05,29,15,48,19.80
2019,05,29,15,49,19.80
2019,05,29,15,50,19.80
2019,05,29,15,51,19.70
2019,05,29,15,52,19.80
2019,05,29,15,53,19.80
2019,05,29,15,54,19.80
2019,05,29,15,55,19.80
2019,05,29,15,56,19.80
2019,05,29,15,57,19.90
2019,05,29,15,58,19.90
2019,05,29,15,59,19.90
2019,05,29,16,00,19.90
2019,05,29,16,01,19.80
2019,05,29,16,02,19.90
2019,05,29,16,03,20.00
2019,05,29,16,04,20.10
2019,05,29,16,05,20.10
2019,05,29,16,06,20.20
2019,05,29,16,07,20.20
2019,05,29,16,08,20.30
2019,05,29,16,09,20.30
2019,05,29,16,10,20.40
2019,05,29,16,11,20.40
2019,05,29,16,12,20.40
2019,05,29,16,13,20.30
2019,05,29,16,14,20.30
2019,05,29,16,15,20.30
2019,05,29,16,16,20.20
2019,05,29,16,17,20.10
2019,05,29,16,18,20.20
2019,05,29,16,19,20.20
2019,05,29,16,20,20.20
2019,05,29,16,21,20.20
2019,05,29,16,22,20.20
2019,05,29,16,23,20.20
2019,05,29,16,24,20.20
2019,05,29,16,25,20.20
2019,05,29,16,26,20.20
2019,05,29,16,27,20.20
2019,05,29,16,28,20.10
2019,05,29,16,29,20.00
2019,05,29,16,30,20.00
2019,05,29,16,31,20.00
2019,05,29,16,32,20.00
2019,05,29,16,33,19.90
2019,05,29,16,34,19.90
2019,05,29,16,35,19.90
2019,05,29,16,36,19.80
2019,05,29,16,37,19.80
2019,05,29,16,38,19.90
2019,05,29,16,39,19.90
2019,05,29,16,40,19.90
2019,05,29,16,41,19.90
2019,05,29,16,42,20.00
2019,05,29,16,43,20.00
2019,05,29,16,44,20.00
2019,05,29,16,45,19.90
2019,05,29,16,46,19.90
2019,05,29,16,47,19.80
2019,05,29,16,48,19.80
2019,05,29,16,49,19.80
2019,05,29,16,50,19.80
2019,05,29,16,51,19.70
2019,05,29,16,52,19.70
2019,05,29,16,53,19.70
2019,05,29,16,54,19.80
2019,05,29,16,55,19.80
2019,05,29,16,56,19.90
2019,05,29,16,57,19.90
2019,05,29,16,58,19.90
2019,05,29,16,59,20.00
2019,05,29,17,00,20.10
2019,05,29,17,01,20.10
2019,05,29,17,02,20.10
2019,05,29,17,03,20.10
2019,05,29,17,04,20.10
2019,05,29,17,05,20.10
2019,05,29,17,06,20.10
2019,05,29,17,07,20.10
2019,05,29,17,08,20.10
2019,05,29,17,09,20.20
2019,05,29,17,10,20.20
2019,05,29,17,11,20.20
2019,05,29,17,12,20.10
2019,05,29,17,13,20.10
2019,05,29,17,14,20.20
2019,05,29,17,15,20.30
2019,05,29,17,16,20.30
2019,05,29,17,17,20.30
2019,05,29,17,18,20.30
2019,05,29,17,19,20.30